Etusivu
METAR-TAF:

METAR-TAF

Lentoasemat :

Mariental, Namibia

Leveyspiiri: 24-36-20S, Pituuspiiri: 17-55-30E, korkeus merenpinnasta: 1113 m

Tämänhetkinen sää

Tämä raportti tehtiin 43 minuuttia sitten, kello 10.00 UTC
Tuuli 4 kn etelästä/kaakosta
Lämpötila 23°C
Kosteus 78%
Ilmanpaine 1019 hPa

METAR: FYML 061000Z AUTO 16004KT //// // ////// 23/19 Q1019

Aika: 12:43 (10:43 UTC)


TAF: puuttuu

Säähavainnot ja -ennusteet yli 4000 lentoasemalta (METAR- ja TAF-raportit).

Käytössä olevat sääasemat on merkitty karttaan keltaisilla ja punaisilla pisteillä.

Aseta hiiri pisteen päälle nähdäksesi sääaseman nimen.

Klikkaa sitten nähdäksesi säähavainnot ja -ennusteet.

Kartan vaihtaminen: klikkaa mustalla rastilla varustettuja vihreitä pisteitä, niin voit zoomata sisään; viivalla varustettua vihreää pistettä, niin voit zoomata ulos tai vihreitä nuolia, niin pääset viereisille kartoille.


METAR-TAF: